Aérodrome :
LOGIN :

S'inscrire | Disclaimer

   EN    FR    IT 

 










Légende :    VFR   VFR Marginal   IFR   IFR Intensif   IFR Très Intensif
Visi : 
Plafond : 
>= 8 km
>= 3000ft
5 à 8 km
1000 à 3000 ft
1500m à 5 km
500 à 1000 ft
800 à 1500m
200 à 500 ft
< 800m
< 200 ft
Symboles :   Orages  Brouillard  Fortes neiges  Fortes précipitations  Vent > 20 kt
SIGMETs :   Divers  Orages  Givrage  Turbulence  Onde Orograph.  Cendres Volcan.







- Altitude de l'aérodrome : 1090 ft
- Code IATA : CFE
- Voir les cartes d'approche


LFLC - Clermont-Ferrand Auvergne

METARs EXPIRÉS :
  • 241430Z AUTO 05006KT 010V100 CAVOK 28/15 Q1018 TEMPO FEW050CB
  • 241400Z AUTO VRB04KT CAVOK 27/15 Q1018 NOSIG
  • 241330Z AUTO VRB04KT CAVOK 26/15 Q1019 NOSIG
  • 241300Z AUTO VRB04KT CAVOK 26/15 Q1019 NOSIG
  • 241230Z AUTO VRB03KT CAVOK 25/14 Q1019 NOSIG
  • 241200Z AUTO VRB02KT CAVOK 24/15 Q1020 NOSIG

Prévision TAF périmée.
ATIS : +33 4 73 62 74 38
Pas de NOTAMs connus pour ce terrain.



MET'MAP, la Météo Aéronautique d'un coup d'oeil ! - Copyright ORBIFLY Décembre 2007 - Disclaimer

ORBIFLY MET'MAP TEAM :

Programmation & Développement : Alexandra Zaïnal
Conception & Développement : Baudouin d'Aumeries
Co-Programmation & Développement : Marc-Olivier Méhu
Soutien technique & logistique : Manuel Goepfert

Contact : metmap@orbifly.com




SOURCES & CREDITS :

   NOAA